SL-12 R/B(2), 18446

Orbit data source: Space-Track

SL-12 R/B(2), 18446 is space debris in GEO originally from a launch on Wed, 28 Oct 1987 UTC launched from the Tyuratam Missile And Space Complex (TTMTR). Debris objects in space refer to the collection of defunct objects orbiting the Earth. Examples of debris include non-operational satellites, rocket bodies, and fragments generated from explosions, collisions, or faulty payload assembly.

Not visible in the next 10 days
Identifier
18446, 1987-091D
Orbit
GEO
Country
Flag of CISCIS
Related business
Manufacturer
NPO Energiya
Mission
Spacecraft
Bus & Motor
BLOK DM, Unknown motor
Mass
2,440 kg wet, 2,440 kg dry
Launch date (UTC)
1987-10-28 (38 years ago)
Launch vehicle
Unknown
Launch site
Tyuratam Missile And Space Complex (TTMTR)
Object type
Payload
Rocket body
Debris
Shape & HBR
Cyl, 3.1 m
Radar Cross Section
23.597 m², Large (>1 m²)

Expand to show TLE details & history
Last TLE update: 1 day ago

TLE from 1 day ago
0 SL-12 R/B(2)
1 18446U 87091D   25348.73254955 -.00000165  00000-0  00000-0 0  9993
2 18446  11.0517 326.9046 0023897 262.3561 273.3339  1.00249039128159
Epoch: 2025-12-14T17:34Z
TLE epoch observation values (Epoch: 2025-12-14T17:34:52.281Z)
Latitude
0.87857°
Longitude
155.02557°
Altitude
35,787.156 km
Speed
3.075 km/s
True Right ascension
09h 29m 32s
True Declination
0° 52' 40"
Sunlit
Object was in daylight at epoch
Visualization orbit readout
Latitude
Unknown
Longitude
Unknown
Altitude
Unknown
Speed
Unknown
Apparent Right ascension
Unknown
Apparent Declination
Unknown
Sunlit
N/A
Visualization observer readout
Local Sidereal Time
19:00:55
Azimuth
Unknown
Elevation
Unknown
Doppler factor
Unknown
Orbital elements
Apogee altitude
35,894.764 km
Perigee altitude
35,693.207 km
Semi-major axis
42,172.122 km
Eccentricity
0.00239
Inclination
11.0517°
RAAN
326.9046°
Arg. of periapsis
262.3561°
True anomaly
273.06048°
Mean anomaly
273.3339°
Eccentric anomaly
273.19719°
Mean motion
0.25061 °/min
Orbital period
1,436.47 mins
BSTAR
0
Loading maneuver chart data...
Computing Atmospheric mass density...
Loading historical data...
Loading historical data...
Loading historical data...
Loading historical data...
Loading historical data...
Loading historical data...
Loading historical data...

Documentation

Showing up to 5 results
|